Torna al catalogo

COSMOS 623

AttivoMilitareLEO
NORAD 6991·PAYLOAD·🇷🇺 Russia

Lanciato Dec 19, 1973 da Plesetsk Cosmodrome

Loading…

Prossimi Passaggi (prossime 24 ore)

TLE

AggiornatoSource: Space-Track

Epoca: Sep 14, 2026, 09:53 UTC

1 06991U 73104G   26257.41237435 -.00000025  00000-0 -48799-4 0  9991
2 06991  74.0265 236.5537 0063567 303.2955 129.6215 12.56959341419887

Traccia COSMOS 623 in tempo reale con AllMySat

Download on the App Store